COSMOS 1275 DEB

Satellite information

Favourite Embed

Satellite Type and Status

DEBRISIN ORBIT

Key statistics

Satellite COSMOS 1275 DEB at a glance.

Uptime

16103

Days in orbit

Revolutions

≈ 14.4

Per day

Orbit

LEO

Low Earth Orbit

Inclination

82.9

Latest

Satellite identification and parameters

Extended collection of information and parameters for COSMOS 1275 DEB.

Object identification

Identified? True

Debris? True

Object name: COSMOS 1275 DEB

International designator: 1981-053CG

Object number (NORAD): 12739

Object ID (CCSDS): 12739

Country: COMMONWEALTH OF INDEPENDENT STATES (CIS)

Current information (Y/N): Y

RCS size: SMALL

Orbital parameters

Period: 99.854 minutes

Inclination: 82.9326 deg

SMA: 7129.702 km

Apoapsis: 758.594 km

Periapsis: 744.54 km

RAAN: 201.537 deg

Eccentricy: 0.0009856

Argument of periapsis: 134.4332 deg

Mean anomaly: 225.767 deg

Mean motion: 14.42100932 rev/day

Mean motion (dot): 0.00003603 rev/day2

B* drag term: 0.0010907 1/REarth

Two-line elements (TLE)

Creation date: July 5, 2025, 5:45 p.m.

Reference frame: TEME

Reference center: EARTH

Epoch: July 5, 2025, 12:38 p.m. UTC

TLE line 0: 0 COSMOS 1275 DEB

TLE line 1: 1 12739U 81053CG 25186.52693764 .00003603 00000-0 10907-2 0 9994

TLE line 2: 2 12739 82.9326 201.5370 0009856 134.4332 225.7670 14.42100932255524

Live tracking on map

Real-time ground track for satellite COSMOS 1275 DEB.

In-orbit conjunctions

A list of the most updated potential collisions computed for object COSMOS 1275 DEB.

Target Orbit TCA Probability of collision Miss distance Type
RIGIDSPHERE 2 (LCS 4) LEO 2025-04-20 01:22:01 0.0001113318 199.0 (m) PAYLOAD

Associated space launch

Navigation satellite providing location information for the Tsiklon-B navigation system

COSMOS 1275 DEB was lifted into orbit during the mission ‘Kosmos-3M | Parus 27’, on board a Kosmos-3M space rocket.

The launch took place on June 4, 1981, 3:41 p.m. from 132/2.

For more information about the launch, click the button.

Launch to space Kosmos-3M | Parus 27
Kosmos-3M | Parus 27

Agency: N/A

Status: Launch Successful

Launch date: June 4, 1981, 3:41 p.m. UTC

Rocket: Kosmos-3M

Launch pad: 132/2

Location: Plesetsk Cosmodrome, Russian Federation

...

Latest news about this satellite

There are no fresh news available about this satellite. Check back as we update our databases every day.


Newsletter sign-up

Weekly statistics, charts and insights to help you stay on top of the space industry.